TimeMST,TemperatureF,Dew PointF,Humidity,Sea Level PressureIn,VisibilityMPH,Wind Direction,Wind SpeedMPH,Gust SpeedMPH,PrecipitationIn,Events,Conditions,WindDirDegrees,DateUTC
12:53 AM,34.0,1.0,25,30.27,10.0,SSW,9.2,-,N/A,,Clear,210,2012-11-13 07:53:00
1:53 AM,28.0,1.0,31,30.27,10.0,South,8.1,-,N/A,,Clear,190,2012-11-13 08:53:00
2:53 AM,30.0,1.0,29,30.24,10.0,SSW,9.2,-,N/A,,Clear,200,2012-11-13 09:53:00
3:53 AM,28.9,1.0,30,30.23,10.0,South,9.2,-,N/A,,Clear,190,2012-11-13 10:53:00
4:53 AM,28.9,1.0,30,30.25,10.0,Calm,Calm,-,N/A,,Clear,0,2012-11-13 11:53:00
5:53 AM,23.0,3.0,42,30.27,10.0,NNW,3.5,-,N/A,,Clear,330,2012-11-13 12:53:00
6:53 AM,24.1,3.9,42,30.28,10.0,Calm,Calm,-,N/A,,Clear,0,2012-11-13 13:53:00
7:53 AM,30.0,5.0,35,30.27,10.0,Calm,Calm,-,N/A,,Clear,0,2012-11-13 14:53:00
8:53 AM,35.1,3.9,27,30.26,10.0,Calm,Calm,-,N/A,,Clear,0,2012-11-13 15:53:00
9:53 AM,39.0,3.9,23,30.25,10.0,Calm,Calm,-,N/A,,Clear,0,2012-11-13 16:53:00
10:53 AM,43.0,3.0,19,30.22,10.0,Calm,Calm,-,N/A,,Clear,0,2012-11-13 17:53:00
11:53 AM,46.0,1.9,16,30.19,10.0,Calm,Calm,-,N/A,,Partly Cloudy,0,2012-11-13 18:53:00
12:53 PM,50.0,1.9,14,30.16,10.0,Variable,3.5,-,N/A,,Mostly Cloudy,0,2012-11-13 19:53:00
1:53 PM,52.0,1.9,13,30.18,10.0,Calm,Calm,-,N/A,,Scattered Clouds,0,2012-11-13 20:53:00
2:53 PM,53.1,1.9,12,30.18,10.0,NNE,5.8,-,N/A,,Clear,30,2012-11-13 21:53:00
3:53 PM,50.0,1.9,14,30.20,10.0,NE,4.6,-,N/A,,Clear,40,2012-11-13 22:53:00
4:53 PM,37.9,1.9,22,30.25,10.0,North,6.9,-,N/A,,Clear,10,2012-11-13 23:53:00
5:53 PM,34.0,5.0,30,30.30,10.0,NNW,4.6,-,N/A,,Clear,330,2012-11-14 00:53:00
6:53 PM,28.9,3.9,35,30.33,10.0,NNW,5.8,-,N/A,,Clear,330,2012-11-14 01:53:00
7:53 PM,28.0,3.9,36,30.34,10.0,West,4.6,-,N/A,,Clear,270,2012-11-14 02:53:00
8:53 PM,25.0,3.9,41,30.35,10.0,WNW,5.8,-,N/A,,Clear,300,2012-11-14 03:53:00
9:53 PM,23.0,3.0,42,30.35,10.0,West,6.9,-,N/A,,Clear,280,2012-11-14 04:53:00
10:53 PM,25.0,3.9,41,30.33,10.0,WNW,6.9,-,N/A,,Clear,290,2012-11-14 05:53:00
11:53 PM,24.1,10.0,55,30.32,10.0,WNW,4.6,-,N/A,,Clear,300,2012-11-14 06:53:00